Content
SEND FEEDBACK

Daily
Averages
Monthly
Summary
United States of America

OTTAWA, ILLINOIS


Home > North America > United States > Illinois
Elevation: 616 feet     Latitude: 41 19N     Longitude: 088 59W

WEATHER
 
SELECT A DAY
Number of Records: 54,007;   Date Range: 9/1/12 - 11/27/14
 
SHARE

PRINT THIS DATA

[ ← Previous Day ]
WEATHER ALMANAC - JANUARY 23, 2013
[ Next Day → ]
[ °C ]   °F
Weather ElementAverageHighLow
Temperature18.2 °F26.2 °F (4:35 pm)12.2 °F (12:35 am)
Dewpoint6.5 °F13.5 °F (6:55 pm)1.4 °F (2:35 am)
Humidity60.5 %78 % (10:15 pm)53 % (1:15 pm)
Barometer30.23 in30.38 in (11:55 pm)30.11 in (2:35 pm)
Wind Speed9.1 mph25.3 mph (7:35 pm)
Wind Gust32.2 mph (7:35 pm)
Weather ElementAverage
Visibility9.6 mi
Wind DirectionWSW (236.5 °)

Weather ElementTotal
Precipitation---
Heating Degree Days45.8 (Base 65)
Averaged from 71 records on January 23, 2013
WEATHER CONDITIONS BREAKOUT
WIND DIRECTION BREAKOUT
WEATHER BY HOUR - JANUARY 23, 2013
[ °C ]   °F
Local TimeTemperatureDewpointHumidityBarometerVisibilityWind DirectionWind SpeedGust SpeedPrecipitationEventsConditions
12:35 AM12.2 °F3.0 °F67 %30.33 in10.0 miWest (270°)3.5 mphOvercast
12:55 AM12.9 °F2.7 °F64 %30.33 in10.0 miCalmOvercast
1:15 AM13.1 °F2.8 °F64 %30.32 in10.0 miCalmOvercast
1:35 AM13.5 °F2.1 °F61 %30.31 in10.0 miCalmOvercast
1:55 AM14.2 °F3.4 °F62 %30.32 in10.0 miCalmOvercast
2:15 AM14.4 °F3.2 °F61 %30.33 in10.0 miWSW (250°)4.6 mphOvercast
2:35 AM14.0 °F1.4 °F57 %30.32 in10.0 miWSW (250°)6.9 mphOvercast
2:55 AM14.4 °F2.1 °F58 %30.32 in10.0 miWest (260°)6.9 mphOvercast
3:15 AM14.5 °F2.3 °F58 %30.31 in10.0 miWSW (250°)5.8 mphOvercast
3:35 AM14.0 °F3.2 °F62 %30.30 in10.0 miWSW (240°)5.8 mphOvercast
3:55 AM14.7 °F3.2 °F60 %30.30 in10.0 miSW (230°)4.6 mphOvercast
4:15 AM14.7 °F2.8 °F59 %30.29 in10.0 miWSW (250°)5.8 mphOvercast
4:35 AM14.7 °F2.5 °F58 %30.28 in10.0 miWSW (250°)4.6 mphOvercast
4:55 AM14.7 °F2.7 °F59 %30.27 in10.0 miWSW (240°)3.5 mphOvercast
5:15 AM14.9 °F3.0 °F59 %30.28 in10.0 miCalmOvercast
5:35 AM14.9 °F3.0 °F59 %30.28 in10.0 miSW (230°)4.6 mphOvercast
5:55 AM14.9 °F2.7 °F58 %30.28 in10.0 miSW (230°)4.6 mphOvercast
6:15 AM14.9 °F2.8 °F59 %30.28 in10.0 miSSW (210°)5.8 mphOvercast
6:35 AM14.9 °F2.7 °F58 %30.27 in10.0 miSSW (210°)6.9 mphOvercast
6:55 AM15.1 °F3.7 °F61 %30.28 in10.0 miSW (220°)6.9 mphOvercast
7:15 AM14.9 °F3.7 °F61 %30.27 in10.0 miSW (220°)6.9 mphOvercast
7:35 AM15.8 °F3.2 °F58 %30.26 in10.0 miSSW (200°)5.8 mphOvercast
7:55 AM15.4 °F4.1 °F61 %30.25 in10.0 miSSW (200°)4.6 mphOvercast
8:15 AM15.6 °F4.5 °F61 %30.26 in10.0 miSouth (190°)4.6 mphOvercast
8:35 AM16.2 °F4.5 °F60 %30.26 in10.0 miSW (220°)6.9 mphOvercast
8:55 AM16.3 °F6.1 °F64 %30.27 in5.0 miSW (230°)5.8 mphSnowLight Snow
9:15 AM15.8 °F6.8 °F68 %30.26 in4.0 miSSW (200°)8.1 mphSnowLight Snow
9:35 AM17.2 °F5.9 °F61 %30.26 in10.0 miSW (220°)8.1 mphSnowLight Snow
9:55 AM17.6 °F6.1 °F61 %30.26 in7.0 miSSW (210°)6.9 mphSnowLight Snow
10:15 AM17.2 °F6.4 °F63 %30.26 in5.0 miSW (220°)4.6 mphSnowLight Snow
10:35 AM17.4 °F5.9 °F61 %30.25 in7.0 miSSW (210°)6.9 mphSnowLight Snow
10:55 AM17.6 °F5.9 °F60 %30.24 in10.0 miSouth (170°)5.8 mphOvercast
11:15 AM18.3 °F6.6 °F60 %30.23 in10.0 miSouth (180°)6.9 mphOvercast
11:35 AM19.4 °F5.0 °F54 %30.21 in10.0 miSSW (200°)8.1 mphOvercast
11:55 AM19.4 °F5.5 °F55 %30.19 in10.0 miSSW (210°)9.2 mphOvercast
12:15 PM19.4 °F5.0 °F54 %30.17 in10.0 miSouth (190°)9.2 mphOvercast
12:35 PM19.9 °F5.5 °F54 %30.16 in10.0 miSSW (200°)8.1 mphOvercast
12:55 PM20.5 °F6.1 °F54 %30.14 in10.0 miSSW (200°)8.1 mphOvercast
1:15 PM21.2 °F6.6 °F53 %30.13 in10.0 miSW (220°)9.2 mphOvercast
1:35 PM21.2 °F6.8 °F54 %30.12 in10.0 miSW (220°)9.2 mphOvercast
1:55 PM22.8 °F8.1 °F53 %30.12 in10.0 miSW (230°)9.2 mphOvercast
2:15 PM23.0 °F8.6 °F54 %30.12 in10.0 miWSW (250°)9.2 mphOvercast
2:35 PM23.5 °F9.0 °F54 %30.11 in10.0 miWSW (240°)6.9 mphOvercast
2:55 PM24.1 °F9.5 °F54 %30.11 in10.0 miWSW (250°)5.8 mphOvercast
3:15 PM24.6 °F10.0 °F54 %30.12 in10.0 miWest (270°)8.1 mphOvercast
3:35 PM24.8 °F10.4 °F54 %30.11 in10.0 miWest (260°)3.5 mphOvercast
3:55 PM25.7 °F11.3 °F55 %30.11 in10.0 miWest (280°)3.5 mphOvercast
4:15 PM26.1 °F11.7 °F55 %30.12 in10.0 miWNW (290°)8.1 mphMostly Cloudy
4:35 PM26.2 °F11.8 °F55 %30.12 in10.0 miWNW (290°)5.8 mphMostly Cloudy
4:55 PM24.6 °F12.2 °F59 %30.12 in10.0 miWNW (290°)8.1 mphScattered Clouds
5:15 PM23.9 °F12.2 °F61 %30.12 in10.0 miWNW (300°)8.1 mphClear
5:35 PM21.2 °F12.2 °F68 %30.13 in10.0 miWNW (300°)8.1 mphClear
5:55 PM21.9 °F12.0 °F66 %30.13 in10.0 miWNW (300°)6.9 mphClear
6:15 PM21.2 °F12.2 °F68 %30.15 in10.0 miWNW (300°)9.2 mphClear
6:35 PM21.9 °F13.1 °F69 %30.15 in10.0 miWNW (290°)8.1 mphScattered Clouds
6:55 PM22.5 °F13.5 °F68 %30.16 in10.0 miWNW (290°)10.4 mphMostly Cloudy
7:15 PM23.0 °F13.1 °F66 %30.17 in10.0 miWNW (300°)19.6 mph25.3 mphMostly Cloudy
7:35 PM22.6 °F10.4 °F59 %30.19 in10.0 miNW (310°)25.3 mph32.2 mphScattered Clouds
7:55 PM21.7 °F9.7 °F60 %30.20 in10.0 miNNW (330°)25.3 mph32.2 mphScattered Clouds
8:15 PM20.1 °F8.2 °F60 %30.22 in10.0 miNW (320°)21.9 mph28.8 mphScattered Clouds
8:35 PM19.4 °F8.1 °F61 %30.23 in10.0 miNW (320°)16.1 mphClear
8:55 PM19.4 °F7.9 °F61 %30.24 in10.0 miNW (320°)17.3 mphClear
9:15 PM19.4 °F8.2 °F62 %30.25 in10.0 miNW (320°)19.6 mph26.5 mphClear
9:35 PM18.5 °F8.2 °F64 %30.26 in10.0 miNW (320°)18.4 mph27.6 mphClear
9:55 PM18.5 °F10.4 °F71 %30.28 in10.0 miNNW (330°)24.2 mph27.6 mphMostly Cloudy
10:15 PM17.6 °F11.7 °F78 %30.29 in10.0 miNNW (340°)18.4 mph27.6 mphMostly Cloudy
10:35 PM16.3 °F9.3 °F74 %30.31 in4.0 miNorth (10°)21.9 mph28.8 mphSnowLight Snow
10:55 PM15.8 °F5.5 °F64 %30.33 in10.0 miNorth (360°)24.2 mph31.1 mphOvercast
11:15 PM14.7 °F3.9 °F62 %30.35 in10.0 miNorth (360°)17.3 mph28.8 mphMostly Cloudy
11:35 PM14.2 °F3.7 °F63 %30.36 in10.0 miNorth (360°)16.1 mph24.2 mphScattered Clouds
11:55 PM13.1 °F2.3 °F62 %30.38 in10.0 miNorth (360°)18.4 mph25.3 mphClear
Hourly data recorded from KVYS, located miles away from Ottawa, Illinois







STORIES FROM OUR PARTNERS